DateTimeUTC,F1_A11,F1_S11,BsB_S11,BsG_S11,BsR_S11,BbsB_S11,BbsG_S11,BbsR_S11,BaB_A11,BaG_A11,BaR_A11,Tu_S11,T_S11,Uu_S11,U_S11,P_S11,T1_A11
2021-07-04T07:00:00Z,00000200,20000000,,,,,,,-000.07,-000.21,0000.22,18.9,25.5,08.1,05.4,0671.8,31.1
2021-07-04T07:01:00Z,00000200,20000000,,,,,,,0000.18,-000.15,-000.12,18.9,25.5,08.1,05.4,0671.8,31.1
2021-07-04T07:02:00Z,00000200,20000000,,,,,,,-000.21,0000.35,0000.04,18.9,25.5,08.1,05.4,0671.8,31.1
2021-07-04T07:03:00Z,00000200,60000000,,,,,,,0000.23,-000.26,-000.15,18.9,25.5,08.1,05.4,0671.8,31.1
2021-07-04T07:04:00Z,00000200,40000000,0000.94,0000.62,0000.07,-000.07,0000.06,0000.15,0000.10,0000.23,0000.44,18.9,25.2,08.1,05.5,0672.7,31.1
2021-07-04T07:05:00Z,00000200,00000000,0000.68,0000.11,0000.05,0000.07,-000.23,0000.05,-000.00,-000.16,-000.21,18.8,25.2,08.2,05.6,0672.8,31.1
2021-07-04T07:06:00Z,00000200,00000000,0000.57,0000.10,-000.10,-000.24,0000.08,-000.34,0000.15,0000.29,0000.36,18.8,25.2,08.3,05.6,0672.8,31.1
2021-07-04T07:07:00Z,00000200,00000000,0000.74,0000.03,-000.05,-000.34,0000.04,-000.12,0000.44,0000.17,-000.07,18.8,25.1,08.3,05.6,0672.8,31.1
2021-07-04T07:08:00Z,00000200,00000000,0001.15,-000.40,0000.42,-000.39,0000.02,-000.06,0000.16,0000.22,0000.26,18.8,25.1,08.2,05.6,0672.8,31.1
2021-07-04T07:09:00Z,00000200,00000000,0001.68,0000.01,0000.08,0000.03,0000.03,0000.11,-000.07,-000.22,-000.22,18.9,25.2,08.3,05.7,0672.8,31.1
2021-07-04T07:10:00Z,00000200,00000000,0001.21,0000.20,0000.32,-000.93,-000.07,0000.15,-000.02,0000.33,0000.29,18.9,25.2,08.3,05.7,0672.8,31.1
2021-07-04T07:11:00Z,00000200,00000000,0001.10,0000.25,0000.17,0000.60,0000.09,0000.11,-000.07,0000.03,-000.23,19.0,25.2,08.4,05.7,0672.8,31.1
2021-07-04T07:12:00Z,00000200,00000000,0000.76,0000.19,0000.07,0000.23,0000.08,0000.06,-000.15,-000.02,0000.32,19.0,25.2,08.4,05.7,0672.8,31.1
2021-07-04T07:13:00Z,00000200,00000000,0000.40,0000.28,0000.15,-000.19,0000.06,0000.21,0000.62,0000.37,0000.01,18.9,25.2,08.4,05.7,0672.8,31.1
2021-07-04T07:14:00Z,00000200,00000000,0000.39,0000.48,0000.09,-000.32,0000.24,-000.01,-000.19,-000.05,0000.18,18.9,25.2,08.4,05.7,0672.8,31.1
2021-07-04T07:15:00Z,00000200,00000000,0000.64,0000.11,0000.10,-000.13,0000.09,-000.00,0000.60,0000.22,-000.02,18.9,25.1,08.4,05.7,0672.7,31.1
2021-07-04T07:16:00Z,00000200,00000000,0000.97,0000.48,0000.09,0000.03,-000.00,0000.06,0000.08,0000.01,-000.09,18.8,25.1,08.5,05.8,0672.8,31.1
2021-07-04T07:17:00Z,00000200,00000000,0000.79,0000.19,0000.05,0000.16,-000.10,-000.04,-000.12,0000.12,0000.23,18.8,25.1,08.5,05.8,0672.8,31.1
2021-07-04T07:18:00Z,00000200,00000000,0000.73,0000.15,0000.07,0000.29,0000.19,-000.33,0000.31,0000.09,0000.39,18.8,25.1,08.6,05.8,0672.8,31.1
2021-07-04T07:19:00Z,00000200,00000000,0000.95,-000.08,0000.19,0000.22,0000.09,-000.11,-000.24,0000.05,-000.18,18.7,25.0,08.6,05.8,0672.8,31.1
2021-07-04T07:20:00Z,00000200,00000000,0000.76,0000.21,0000.39,0000.52,-000.04,-000.01,0000.39,0000.35,0000.01,18.7,25.0,08.6,05.9,0672.8,31.1
2021-07-04T07:21:00Z,00000200,00000000,0001.17,0000.14,0000.40,0000.04,0000.12,0000.15,-000.09,-000.33,0000.22,18.7,25.0,08.7,05.9,0672.8,31.1
2021-07-04T07:22:00Z,00000200,00000000,0000.48,0000.10,0000.02,0000.35,0000.19,-000.13,0000.25,0000.68,0000.15,18.7,25.0,08.8,06.0,0672.8,31.1
2021-07-04T07:23:00Z,00000200,00000000,0001.04,-000.06,0000.42,-000.35,-000.07,0000.07,0000.06,-000.28,-000.04,18.7,25.0,08.8,06.0,0672.8,31.1
2021-07-04T07:24:00Z,00000200,00000000,0001.42,-000.03,0000.24,-000.27,0000.12,0000.03,0000.12,0000.25,0000.04,18.8,25.0,08.8,06.0,0672.8,31.1
2021-07-04T07:25:00Z,00000200,00000000,0000.54,-000.04,0000.31,0000.45,0000.08,0000.30,0000.22,0000.29,0000.27,18.9,25.1,08.8,06.1,0672.8,31.1
2021-07-04T07:26:00Z,00000200,00000000,0000.59,-000.04,0000.28,-000.09,0000.48,-000.03,0000.07,-000.22,-000.07,19.0,25.1,08.8,06.1,0672.8,31.1
2021-07-04T07:27:00Z,00000200,00000000,0000.72,0000.16,-000.07,0000.14,0000.04,-000.06,-000.29,0000.01,-000.02,19.0,25.2,08.7,06.0,0672.8,31.2
2021-07-04T07:28:00Z,00000200,00000000,0000.56,0000.00,0000.31,0000.44,-000.08,0000.25,0000.67,0000.18,0000.16,19.0,25.2,08.7,06.0,0672.8,31.1
2021-07-04T07:29:00Z,00000200,00000000,0000.51,0000.45,0000.31,0000.03,-000.04,0000.12,-000.39,0000.06,-000.03,19.0,25.2,08.7,06.0,0672.7,31.1
2021-07-04T07:30:00Z,00000200,00000000,0000.46,0000.39,0000.24,0000.41,0000.41,0000.09,0000.50,0000.33,0000.13,19.0,25.2,08.7,06.0,0672.8,31.1
2021-07-04T07:31:00Z,00000200,00000000,0001.18,0000.34,-000.21,0000.42,0000.05,-000.17,0000.00,-000.27,0000.37,19.0,25.1,08.7,05.9,0672.7,31.1
2021-07-04T07:32:00Z,00000200,00000000,0000.27,0000.31,-000.07,0000.16,0000.01,0000.06,-000.21,0000.10,-000.47,18.9,25.1,08.8,06.0,0672.8,31.1
2021-07-04T07:33:00Z,00000200,00000000,0001.27,0000.11,0000.24,-000.29,0000.16,0000.12,0000.07,0000.02,0000.43,18.9,25.1,08.7,06.0,0672.7,31.1
2021-07-04T07:34:00Z,00000200,00000000,0000.56,0000.03,0000.08,0000.00,0000.16,0000.00,0000.02,0000.08,-000.23,18.9,25.1,08.6,05.9,0672.7,31.1
2021-07-04T07:35:00Z,00000200,00000000,0000.16,0000.10,0000.18,-000.00,0000.05,-000.08,0000.20,0000.02,0000.11,18.8,25.0,08.7,05.9,0672.7,31.1
2021-07-04T07:36:00Z,00000200,00000000,0000.74,0000.31,-000.09,-000.28,0000.16,-000.18,-000.03,0000.20,0000.08,18.8,25.0,08.6,05.9,0672.7,31.1
2021-07-04T07:37:00Z,00000200,00000000,-000.14,0000.40,-000.13,-000.07,-000.06,0000.01,0000.22,0000.00,0000.32,18.8,25.0,08.6,05.9,0672.7,31.1
2021-07-04T07:38:00Z,00000200,00000000,0000.81,0000.38,0000.42,-000.39,0000.43,-000.21,-000.12,0000.03,-000.46,18.8,25.0,08.5,05.9,0672.7,31.1
2021-07-04T07:39:00Z,00000200,00000000,0000.52,0000.17,0000.01,-000.15,0000.22,0000.06,0000.40,-000.05,0000.27,18.9,25.1,08.4,05.8,0672.7,31.1
2021-07-04T07:40:00Z,00000200,00000000,0000.29,0000.20,0000.06,-000.02,0000.07,-000.05,-000.38,0000.13,0000.16,19.0,25.1,08.4,05.8,0672.7,31.1
2021-07-04T07:41:00Z,00000200,00000000,0000.67,0000.40,-000.05,0000.15,0000.22,0000.12,0000.25,0000.07,0000.06,19.1,25.2,08.3,05.7,0672.7,31.2
2021-07-04T07:42:00Z,00000200,00000000,0001.04,0000.43,-000.07,0000.31,-000.18,0000.11,0000.07,-000.05,-000.17,19.1,25.2,08.3,05.7,0672.7,31.2
2021-07-04T07:43:00Z,00000200,00000000,0001.24,0000.26,0000.06,-000.04,-000.13,-000.08,0000.16,0000.32,0000.20,19.1,25.2,08.3,05.7,0672.7,31.2
2021-07-04T07:44:00Z,00000200,00000000,0000.58,0000.33,0000.27,0000.19,-000.06,0000.22,-000.29,-000.05,0000.14,19.1,25.2,08.2,05.6,0672.7,31.1
2021-07-04T07:45:00Z,00000200,00000000,-000.11,0000.15,-000.09,0000.28,-000.01,-000.13,0000.15,-000.10,-000.17,19.1,25.2,08.2,05.7,0672.7,31.1
2021-07-04T07:46:00Z,00000200,00000000,0000.91,0000.27,0000.38,-000.27,0000.04,0000.20,0000.08,0000.35,0000.27,19.1,25.2,08.3,05.7,0672.7,31.1
2021-07-04T07:47:00Z,00000200,00000000,0001.53,0000.12,0000.16,-000.37,-000.11,0000.13,0000.08,-000.03,-000.27,19.0,25.1,08.3,05.7,0672.7,31.1
2021-07-04T07:48:00Z,00000200,00000000,0000.41,0000.03,0000.35,0000.27,0000.12,0000.11,0000.40,0000.03,0000.25,19.0,25.1,08.2,05.6,0672.7,31.1
2021-07-04T07:49:00Z,00000200,00000000,0000.78,0000.08,0000.10,0000.56,-000.03,-000.29,-000.03,0000.17,0000.06,19.0,25.1,08.2,05.6,0672.6,31.1
2021-07-04T07:50:00Z,00000200,00000000,0001.56,0000.35,0000.08,0000.22,-000.18,-000.05,-000.04,-000.11,0000.02,18.9,25.1,08.3,05.7,0672.7,31.1
2021-07-04T07:51:00Z,00000200,00000000,0001.31,0000.13,0000.12,0000.21,-000.10,0000.09,-000.03,-000.04,0000.08,18.9,25.1,08.2,05.6,0672.7,31.1
2021-07-04T07:52:00Z,00000200,00000000,0000.50,-000.07,0000.15,0000.20,-000.04,0000.27,0000.09,0000.07,-000.09,18.9,25.1,08.2,05.6,0672.6,31.1
2021-07-04T07:53:00Z,00000200,00000000,0000.38,0000.14,-000.26,0000.04,0000.40,-000.21,0000.19,0000.11,-000.15,18.9,25.1,08.2,05.6,0672.6,31.1
2021-07-04T07:54:00Z,00000200,00000000,0001.02,0000.09,-000.07,0000.50,0000.07,0000.16,-000.09,-000.08,0000.58,19.0,25.1,08.2,05.6,0672.6,31.1
2021-07-04T07:55:00Z,00000200,00000000,0000.38,0000.18,0000.30,-000.33,0000.28,0000.07,0000.46,0000.63,-000.13,19.0,25.2,08.2,05.7,0672.6,31.1
2021-07-04T07:56:00Z,00000200,00000000,0000.99,-000.10,0000.40,0000.09,0000.22,0000.27,-000.24,-000.01,-000.20,19.0,25.2,08.3,05.7,0672.6,31.2
2021-07-04T07:57:00Z,00000200,40000000,,,,,,,0000.16,-000.16,0000.31,19.1,25.2,08.6,05.9,0672.7,31.2
2021-07-04T07:58:00Z,00000200,60000000,,,,,,,-000.15,0000.50,0000.03,18.8,25.3,08.2,05.5,0671.6,31.1
2021-07-04T07:59:00Z,00000200,20000000,,,,,,,-000.15,-000.39,-000.09,18.8,25.4,08.2,05.5,0671.6,31.1
